Location: Zagreb
(45.8000°N, 16.0000°E)
Time: 10:46:54
(UTC+02:00)

Altair - All Passes

Search period start: 15 July 2024 00:00
Search period end: 25 July 2024 00:00
Orbit: 1502 x 1681 km, 47.2° (Epoch: 15 July)

Date Brightness Start Highest point End Pass type
(mag) Time Alt. Az. Time Alt. Az. Time Alt. Az.
15 Jul - 02:03:20 10° WNW 02:12:20 62° SSW 02:21:31 10° SE visible
15 Jul - 04:09:01 10° W 04:15:40 23° SW 04:22:28 10° S visible
15 Jul - 17:29:23 10° SE 17:30:55 10° ESE 17:32:26 10° ESE daylight
15 Jul - 19:25:06 10° SSW 19:33:37 42° SE 19:41:59 10° ENE daylight
15 Jul - 21:28:22 10° WSW 21:37:39 85° SSE 21:46:52 10° ENE visible
15 Jul - 23:33:19 10° W 23:42:33 83° N 23:51:52 10° E visible
16 Jul - 01:38:08 10° WNW 01:47:11 65° SSW 01:56:24 10° SE visible
16 Jul - 03:43:37 10° W 03:50:36 25° SW 03:57:44 10° S visible
16 Jul - 19:00:08 10° SSW 19:08:30 39° SE 19:16:44 10° ENE daylight
16 Jul - 21:03:10 10° WSW 21:12:27 82° SSE 21:21:39 10° ENE visible
16 Jul - 23:08:05 10° W 23:17:20 82° N 23:26:37 10° E visible
17 Jul - 01:12:56 10° WNW 01:22:01 69° SSW 01:31:14 10° SE visible
17 Jul - 03:18:16 10° W 03:25:32 27° SW 03:32:58 10° S visible
17 Jul - 18:35:11 10° SSW 18:43:25 36° SE 18:51:29 10° ENE daylight
17 Jul - 20:37:58 10° WSW 20:47:15 79° SSE 20:56:27 10° ENE daylight
17 Jul - 22:42:51 10° W 22:52:07 82° N 23:01:22 10° E visible
18 Jul - 00:47:44 10° WNW 00:56:51 72° SSW 01:06:06 10° SE visible
18 Jul - 02:52:56 10° WNW 03:00:28 29° SW 03:08:08 10° S visible
18 Jul - 18:10:16 10° SSW 18:18:19 33° SE 18:26:12 10° ENE daylight
18 Jul - 20:12:47 10° WSW 20:22:05 76° SSE 20:31:14 10° ENE daylight
18 Jul - 22:17:37 10° W 22:26:54 82° N 22:36:08 10° E visible
19 Jul - 00:22:31 10° WNW 00:31:40 75° SSW 00:40:56 10° ESE visible
19 Jul - 02:27:38 10° WNW 02:35:23 32° SW 02:43:16 10° SSE visible
19 Jul - 17:45:22 10° SSW 17:53:14 31° SE 18:00:54 10° ENE daylight
19 Jul - 19:47:36 10° WSW 19:56:54 73° SSE 20:06:03 10° ENE daylight
19 Jul - 21:52:23 10° W 22:01:40 82° N 22:10:55 10° E visible
19 Jul - 23:57:19 10° WNW 00:06:30 78° SSW 00:15:45 10° ESE visible
20 Jul - 02:02:20 10° WNW 02:10:17 34° SW 02:18:22 10° SSE visible
20 Jul - 17:20:32 10° S 17:28:08 28° SE 17:35:35 10° E daylight
20 Jul - 19:22:26 10° SW 19:31:44 70° SSE 19:40:51 10° ENE daylight
20 Jul - 21:27:08 10° W 21:36:27 82° N 21:45:41 10° E visible
20 Jul - 23:32:06 10° WNW 23:41:19 81° SSW 23:50:34 10° ESE visible
21 Jul - 01:37:04 10° WNW 01:45:11 37° SW 01:53:27 10° SSE visible
21 Jul - 16:55:43 10° S 17:03:04 26° SE 17:10:15 10° E daylight
21 Jul - 18:57:17 10° SW 19:06:34 67° SSE 19:15:39 10° ENE daylight
21 Jul - 21:01:53 10° W 21:11:13 83° N 21:20:27 10° E visible
21 Jul - 23:06:54 10° WNW 23:16:07 83° SSW 23:25:22 10° ESE visible
22 Jul - 01:11:48 10° WNW 01:20:06 40° SW 01:28:29 10° SSE visible
22 Jul - 16:30:57 10° S 16:38:00 24° SE 16:44:53 10° E daylight
22 Jul - 18:32:08 10° SW 18:41:24 64° SSE 18:50:27 10° ENE daylight
22 Jul - 20:36:38 10° W 20:46:00 84° N 20:55:14 10° E daylight
22 Jul - 22:41:41 10° WNW 22:50:55 86° SSW 23:00:10 10° ESE visible
23 Jul - 00:46:33 10° WNW 00:54:59 43° SW 01:03:31 10° SSE visible
23 Jul - 02:55:18 10° WSW 02:57:42 11° WSW 03:00:07 10° SW visible
23 Jul - 16:06:15 10° S 16:12:56 22° SE 16:19:28 10° E daylight
23 Jul - 18:07:00 10° SW 18:16:15 60° SSE 18:25:15 10° ENE daylight
23 Jul - 20:11:23 10° W 20:20:47 85° N 20:30:01 10° E daylight
23 Jul - 22:16:27 10° WNW 22:25:44 88° SSW 22:34:58 10° ESE visible
24 Jul - 00:21:19 10° WNW 00:29:53 46° SW 00:38:31 10° SSE visible
24 Jul - 02:29:03 10° W 02:32:41 13° WSW 02:36:22 10° SSW visible
24 Jul - 15:41:36 10° S 15:47:52 20° SE 15:54:00 10° E daylight
24 Jul - 17:41:53 10° SW 17:51:06 57° SSE 18:00:03 10° ENE daylight
24 Jul - 19:46:09 10° W 19:55:34 86° N 20:04:48 10° E daylight
24 Jul - 21:51:13 10° WNW 22:00:32 90° N 22:09:45 10° ESE visible
